スコッティ彗星

430P/Scotti (2010)

English version
Home page
Updated on October 6, 2021

---------------------------------------------------------------------

・ プロフィール

符号 430P/2011 A2
発見日 2011年1月11日
発見光度 20.2等
発見者 J. V. Scotti (Spaewatch, Kitt Peak)

・ 写真集

・ 軌道要素

Epoch 2010 Dec. 30.0 TT = JDT 2455560.5                                         
T 2010 Dec. 22.50369 TT                                 Rudenko                 
q   1.5587914            (2000.0)            P               Q                  
n   0.17977534     Peri.   94.58891     -0.85751096     -0.51050868             
a   3.1092046      Node    54.72663     +0.43566060     -0.78641436             
e   0.4986527      Incl.    4.47403     +0.27363260     -0.34775472             
P   5.48                                                                        
From 251 observations 2011 Jan. 11-2021 Aug. 25, mean residual 0".7.            

・ 光度変化

        m1 = 15.5 + 5 logΔ + 10.0 log r

---------------------------------------------------------------------

軌道要素はM.P.E.C. 2021-Q69に掲載されたものです。
光度グラフはComet for Windowsで作成したものです。

---------------------------------------------------------------------

Copyright(C) Seiichi Yoshida (comet@aerith.net). All rights reserved.